NW Arkansas Airport, AR

2:43 PM CST on December 18, 2017 (GMT -0600)
Northwest Arkansas Regional

Weather History for KXNA - November, 2012

Change the Weather History Date:

Friday, November 23, 2012

  Actual Average (KVBT) Record (KVBT)
Temperature  
Mean Temperature 42 °F -  
Max Temperature 55 °F 54 °F 73 °F (1983)
Min Temperature 28 °F 33 °F 17 °F (1975)
Degree Days  
Heating Degree Days 24    
Moisture  
Dew Point 26 °F    
Average Humidity 58    
Maximum Humidity 76    
Minimum Humidity 42    
Precipitation  
Precipitation 0.00 in - - ()
Sea Level Pressure  
Sea Level Pressure 30.38 in    
Wind  
Wind Speed 12 mph (NNW)    
Max Wind Speed 23 mph    
Max Gust Speed 30 mph    
Visibility 10 miles    
Events      
Averages and records for this station are not official NWS values.
T = Trace of Precipitation, MM = Missing Value Source: NWS Daily Summary

Daily Weather History Graph

Daily Weather History Graph

Search for Another Location

Airport or City:

Trip Planner

Search our weather history database for the weather conditions in past years. The results will help you decide how hot, cold, wet, or windy it might be!

Date:

Astronomy

Nov. 23, 2012 Rise Set
Actual Time 7:02 AM CST 5:04 PM CST
Civil Twilight 6:34 AM CST 5:32 PM CST
Nautical Twilight 6:03 AM CST 6:03 PM CST
Astronomical Twilight 5:32 AM CST 6:34 PM CST
Moon 2:13 PM CST (11/23) 2:29 AM CST (11/23)
Length of Visible Light 10h 57m
Length of Day
10h 01m
Waxing Gibbous, 80% of the Moon is Illuminated
Nov 23
Waxing Gibbous
Nov 28
Full
Dec 6
Last Quarter
Dec 13
New
Dec 19
First Quarter

Hourly Weather History & Observations

Time (CST) Temp. Windchill Dew Point Humidity Pressure Visibility Wind Dir Wind Speed Gust Speed Precip Events Conditions
12:53 AM 55.0 °F - 42.1 °F 62% 30.19 in 10.0 mi NNE 16.1 mph 27.6 mph N/A   Overcast
1:53 AM 52.0 °F - 30.0 °F 43% 30.23 in 10.0 mi NNE 23.0 mph 29.9 mph N/A   Mostly Cloudy
2:53 AM 48.9 °F - 32.0 °F 52% 30.27 in 10.0 mi North 12.7 mph - N/A   Scattered Clouds
3:53 AM 46.9 °F - 30.0 °F 52% 30.29 in 10.0 mi North 12.7 mph - N/A   Partly Cloudy
4:53 AM 43.0 °F 38.2 °F 32.0 °F 65% 30.32 in 10.0 mi North 8.1 mph - N/A   Clear
5:53 AM 39.0 °F 35.7 °F 32.0 °F 76% 30.33 in 10.0 mi NNW 4.6 mph - N/A   Clear
6:53 AM 39.0 °F 34.8 °F 30.9 °F 73% 30.36 in 10.0 mi NW 5.8 mph - N/A   Clear
7:53 AM 42.1 °F 36.6 °F 35.1 °F 76% 30.38 in 10.0 mi NW 9.2 mph - N/A   Clear
8:53 AM 45.0 °F 39.3 °F 33.1 °F 63% 30.40 in 10.0 mi NNW 11.5 mph 23.0 mph N/A   Clear
9:53 AM 45.0 °F 36.6 °F 26.1 °F 48% 30.42 in 10.0 mi North 21.9 mph 26.5 mph N/A   Clear
10:53 AM 44.1 °F 37.1 °F 26.1 °F 49% 30.43 in 10.0 mi NW 15.0 mph 25.3 mph N/A   Clear
11:53 AM 44.1 °F 38.1 °F 23.0 °F 43% 30.43 in 10.0 mi NW 11.5 mph 24.2 mph N/A   Clear
12:53 PM 43.0 °F 35.4 °F 21.0 °F 42% 30.42 in 10.0 mi NW 16.1 mph 25.3 mph N/A   Clear
1:53 PM 44.1 °F 37.7 °F 21.9 °F 42% 30.41 in 10.0 mi NW 12.7 mph - N/A   Clear
2:53 PM 43.0 °F 35.7 °F 21.0 °F 42% 30.41 in 10.0 mi NW 15.0 mph 23.0 mph N/A   Clear
3:53 PM 42.1 °F 36.6 °F 21.0 °F 43% 30.42 in 10.0 mi NW 9.2 mph - N/A   Clear
4:53 PM 39.0 °F 31.4 °F 21.0 °F 49% 30.43 in 10.0 mi NW 12.7 mph - N/A   Clear
5:53 PM 36.0 °F 30.3 °F 21.9 °F 57% 30.43 in 10.0 mi NW 6.9 mph - N/A   Clear
6:53 PM 34.0 °F 29.8 °F 21.9 °F 61% 30.44 in 10.0 mi WNW 4.6 mph - N/A   Clear
7:53 PM 33.1 °F 27.7 °F 21.9 °F 64% 30.44 in 10.0 mi NW 5.8 mph - N/A   Clear
8:53 PM 30.9 °F 25.2 °F 21.9 °F 69% 30.44 in 10.0 mi NW 5.8 mph - N/A   Clear
9:53 PM 30.9 °F 24.3 °F 21.0 °F 67% 30.44 in 10.0 mi NNW 6.9 mph - N/A   Clear
10:53 PM 28.0 °F 21.7 °F 21.0 °F 75% 30.44 in 10.0 mi NNW 5.8 mph - N/A   Clear
11:53 PM 28.9 °F - 21.0 °F 72% 30.43 in 10.0 mi Calm Calm - N/A   Clear